Content
SEND FEEDBACK

Daily
Averages
Monthly
Summary
Turkmenistan

ASHGABAT, TURKMENISTAN


Home > Asia > Turkmenistan
Elevation: 236 meters     Latitude: 37 58N     Longitude: 058 20E

WEATHER
 
SELECT A DAY
Number of Records: 183,395;   Date Range: 3/15/97 - 12/17/14
 
SHARE

PRINT THIS DATA

[ ← Previous Day ]
WEATHER ALMANAC - 17 MARCH, 2013
[ Next Day → ]
[ °F ]   °C
Weather ElementAverageHighLow
Temperature14.1 °C20 °C (2:00 pm)6 °C (7:00 am)
Dewpoint4.7 °C7.2 °C (11:00 pm)1.7 °C (2:00 am)
Humidity52.6 %81 % (7:00 am)26 % (2:00 pm)
Barometer1013.2 hPa1017.3 hPa (2:00 am)1011.2 hPa (5:00 pm)
Wind Speed14.2 km/h21.6 km/h (12:00 pm)
Weather ElementAverage
Visibility10 km
Wind DirectionESE (105.3 °)

Weather ElementTotal
Precipitation---
Heating Degree Days5.3 (Base 18.3)
Growing Degree Days3 (Base 10)
Averaged from 32 records on 17 March, 2013
WEATHER CONDITIONS BREAKOUT
WIND DIRECTION BREAKOUT
WEATHER BY HOUR - 17 MARCH, 2013
[ °F ]   °C
Local TimeTemperatureDewpointHumidityBarometerVisibilityWind DirectionWind SpeedGust SpeedPrecipitationEventsConditions
1:00 AM10 °C2 °C58 %1016.3 hPa10 kmESE (120°)10.8 km/hClear
2:00 AM10 °C1.7 °C45 %1017.3 hPa9.7 kmESE (110°)10.8 km/h
2:00 AM9 °C3 °C66 %1016.3 hPa10 kmESE (120°)14.3 km/hClear
3:00 AM9 °C3 °C66 %1015.2 hPa10 kmEast (100°)10.8 km/hClear
4:00 AM7 °C3 °C76 %1015.2 hPa10 kmESE (120°)10.8 km/hClear
5:00 AM8.3 °C2.8 °C59 %1015.6 hPa9.7 kmEast (90°)10.8 km/hClear
5:00 AM8 °C3 °C71 %1014.2 hPa10 kmESE (110°)14.3 km/hScattered Clouds
7:00 AM6 °C3 °C81 %1014.2 hPa10 kmEast (90°)10.8 km/hMostly Cloudy
8:00 AM7 °C4 °C81 %1014.2 hPa10 kmEast (90°)10.8 km/hMostly Cloudy
8:00 AM6.7 °C2.2 °C66 %1015.9 hPa9.7 kmEast (80°)7.2 km/hScattered Clouds
9:00 AM9 °C5 °C76 %1014.2 hPa10 kmEast (100°)14.3 km/hMostly Cloudy
10:00 AM12 °C5 °C62 %1014.2 hPa10 kmEast (100°)18 km/hMostly Cloudy
11:00 AM13.3 °C4.4 °C44 %1014.9 hPa9.7 kmSE (130°)18 km/hClear
11:00 AM14 °C5 °C55 %1014.2 hPa10 kmESE (120°)14.3 km/hMostly Cloudy
12:00 PM17 °C4 °C42 %1013.2 hPa10 kmESE (110°)21.6 km/hScattered Clouds
1:00 PM19 °C4 °C37 %1013.2 hPa10 kmEast (90°)21.6 km/hPartly Cloudy
2:00 PM20 °C5 °C37 %1013.2 hPa10 kmEast (100°)18 km/hScattered Clouds
2:00 PM19.4 °C4.4 °C26 %1012.9 hPa9.7 kmESE (110°)21.6 km/hClear
3:00 PM20 °C5 °C37 %1012.2 hPa10 kmEast (90°)18 km/hScattered Clouds
4:00 PM20 °C5 °C37 %1012.2 hPa10 kmEast (90°)18 km/hMostly Cloudy
5:00 PM20 °C6.1 °C28 %1011.9 hPa9.7 kmEast (100°)14.3 km/hScattered Clouds
5:00 PM20 °C5 °C37 %1011.2 hPa10 kmEast (90°)14.3 km/hMostly Cloudy
5:30 PM20 °C5 °C37 %1011.2 hPa10 kmEast (100°)18 km/hMostly Cloudy
6:00 PM19 °C5 °C40 %1011.2 hPa10 kmEast (90°)14.3 km/hOvercast
6:30 PM19 °C6 °C43 %1011.2 hPa10 kmESE (110°)14.3 km/hOvercast
7:00 PM18 °C6 °C45 %1011.2 hPa10 kmEast (100°)10.8 km/hOvercast
8:00 PM16.7 °C6.7 °C41 %1011.9 hPa9.7 kmESE (110°)10.8 km/hOvercast
8:00 PM16 °C7 °C55 %1011.2 hPa10 kmESE (120°)14.3 km/hOvercast
9:00 PM15 °C7 °C59 %1011.2 hPa10 kmSE (130°)10.8 km/hMostly Cloudy
10:00 PM15 °C7 °C59 %1011.2 hPa10 kmSE (130°)10.8 km/hScattered Clouds
11:00 PM13.9 °C7.2 °C55 %1011.9 hPa9.7 kmEast (100°)10.8 km/hClear
11:00 PM14 °C7 °C63 %1011.2 hPa10 kmESE (120°)14.3 km/hPartly Cloudy
Hourly data recorded from UTAA, located 0 kilometers away from Ashgabat, Turkmenistan







STORIES FROM OUR PARTNERS